VIA022 SVMI-SKBG

Flight info

Callsign VIA022
Flight time 1h 27m
Altitude 34000
Route BUTSA2 PBL UP533 BNS DCT TORAT TORAT1R
Aircraft B38M/M-SDE1FGHILORVWXY/HB1

Departure

Time 2026-04-22 18:04
Airport Maiquetía Simón Bolívar International Airport (SVMI)

Arrival

Time 2026-04-22 19:32
Airport Palonegro Airport (SKBG)
Time Latitude Longitude Altitude Speed Heading
2026-04-22 17:27 10.59829 -67.00457 230 ft 0 kts 178°
2026-04-22 17:54 10.59830 -67.00458 230 ft 1 kts 178°
2026-04-22 17:54 10.59869 -67.00459 230 ft 1 kts 178°
2026-04-22 17:54 10.59884 -67.00460 232 ft 6 kts 178°
2026-04-22 17:54 10.59918 -67.00461 233 ft 4 kts 224°
2026-04-22 17:55 10.59916 -67.00462 234 ft 0 kts 220°
2026-04-22 17:55 10.59916 -67.00463 234 ft 1 kts 221°
2026-04-22 17:55 10.59906 -67.00488 232 ft 7 kts 268°
2026-04-22 17:56 10.59914 -67.00541 232 ft 8 kts 276°
2026-04-22 17:56 10.59915 -67.00599 210 ft 8 kts 270°
2026-04-22 17:56 10.59915 -67.00659 208 ft 9 kts 269°
2026-04-22 17:56 10.59913 -67.00722 210 ft 9 kts 268°
2026-04-22 17:57 10.59911 -67.00765 218 ft 9 kts 268°
2026-04-22 17:57 10.59909 -67.00835 219 ft 10 kts 268°
2026-04-22 17:57 10.59906 -67.00911 219 ft 11 kts 268°
2026-04-22 17:57 10.59903 -67.00993 220 ft 12 kts 268°
2026-04-22 17:58 10.59901 -67.01085 222 ft 13 kts 269°
2026-04-22 17:58 10.59900 -67.01173 223 ft 11 kts 268°
2026-04-22 17:58 10.59936 -67.01230 225 ft 11 kts 341°
2026-04-22 17:58 10.60013 -67.01241 226 ft 12 kts
2026-04-22 17:59 10.60103 -67.01243 227 ft 14 kts 357°
2026-04-22 17:59 10.60213 -67.01248 219 ft 17 kts 358°
2026-04-22 17:59 10.60260 -67.01250 219 ft 0 kts 356°
2026-04-22 18:02 10.60293 -67.01252 234 ft 10 kts 357°
2026-04-22 18:02 10.60378 -67.01224 243 ft 16 kts 67°
2026-04-22 18:03 10.60384 -67.01155 242 ft 0 kts 86°
2026-04-22 18:04 10.60391 -67.00918 236 ft 71 kts 88°
2026-04-22 18:04 10.60415 -67.00144 227 ft 146 kts 88°
2026-04-22 18:04 10.60454 -66.98947 508 ft 181 kts 88°
2026-04-22 18:04 10.60521 -66.97597 975 ft 200 kts 82°
2026-04-22 18:05 10.60777 -66.96138 1403 ft 220 kts 79°
2026-04-22 18:05 10.61069 -66.94546 1715 ft 237 kts 79°
2026-04-22 18:05 10.61387 -66.92875 2126 ft 244 kts 75°
2026-04-22 18:05 10.62218 -66.91380 2468 ft 246 kts 44°
2026-04-22 18:06 10.63701 -66.90528 2903 ft 251 kts 15°
2026-04-22 18:06 10.65454 -66.90351 3390 ft 255 kts
2026-04-22 18:06 10.67241 -66.90276 3851 ft 258 kts
2026-04-22 18:06 10.69042 -66.90202 4303 ft 260 kts
2026-04-22 18:07 10.70866 -66.90130 4770 ft 263 kts
2026-04-22 18:07 10.72682 -66.90060 5224 ft 266 kts
2026-04-22 18:07 10.74548 -66.89988 5688 ft 269 kts
2026-04-22 18:07 10.76425 -66.89915 6164 ft 272 kts
2026-04-22 18:08 10.78328 -66.89841 6619 ft 275 kts
2026-04-22 18:08 10.80244 -66.89871 7068 ft 276 kts 348°
2026-04-22 18:08 10.82002 -66.90599 7527 ft 274 kts 323°
2026-04-22 18:08 10.83287 -66.92006 8020 ft 273 kts 298°
2026-04-22 18:09 10.83924 -66.93804 8501 ft 272 kts 277°
2026-04-22 18:09 10.84048 -66.95732 9019 ft 274 kts 271°
2026-04-22 18:09 10.84104 -66.97677 9517 ft 275 kts 271°
2026-04-22 18:09 10.84133 -66.99629 9989 ft 277 kts 270°
2026-04-22 18:10 10.84148 -67.01594 10436 ft 278 kts 270°
2026-04-22 18:10 10.84153 -67.03591 10867 ft 289 kts 270°
2026-04-22 18:10 10.84151 -67.05702 11260 ft 308 kts 270°
2026-04-22 18:10 10.84145 -67.07952 11694 ft 325 kts 270°
2026-04-22 18:11 10.84137 -67.10290 12241 ft 335 kts 270°
2026-04-22 18:11 10.84127 -67.12658 13077 ft 335 kts 270°
2026-04-22 18:11 10.84118 -67.15045 13776 ft 340 kts 270°
2026-04-22 18:11 10.84107 -67.17443 14408 ft 344 kts 270°
2026-04-22 18:12 10.84076 -67.19889 14998 ft 348 kts 266°
2026-04-22 18:12 10.83487 -67.22277 15624 ft 350 kts 249°
2026-04-22 18:12 10.82870 -67.23835 16012 ft 354 kts 249°
2026-04-22 18:12 10.81632 -67.26943 16737 ft 360 kts 248°
2026-04-22 18:13 10.80674 -67.29310 17292 ft 364 kts 248°
2026-04-22 18:13 10.79695 -67.31709 17829 ft 369 kts 248°
2026-04-22 18:13 10.78704 -67.34129 18335 ft 373 kts 248°
2026-04-22 18:13 10.77703 -67.36574 18794 ft 376 kts 248°
2026-04-22 18:14 10.76694 -67.39037 19266 ft 379 kts 248°
2026-04-22 18:14 10.75676 -67.41521 19738 ft 381 kts 248°
2026-04-22 18:14 10.74652 -67.44018 20190 ft 384 kts 248°
2026-04-22 18:14 10.73618 -67.46539 20649 ft 387 kts 248°
2026-04-22 18:15 10.72580 -67.49072 21100 ft 390 kts 248°
2026-04-22 18:15 10.71532 -67.51624 21534 ft 393 kts 248°
2026-04-22 18:15 10.70473 -67.54206 21969 ft 396 kts 248°
2026-04-22 18:15 10.69425 -67.56758 22410 ft 398 kts 248°
2026-04-22 18:16 10.68353 -67.59370 22846 ft 401 kts 248°
2026-04-22 18:16 10.67275 -67.61993 23257 ft 404 kts 248°
2026-04-22 18:16 10.66187 -67.64640 23645 ft 406 kts 248°
2026-04-22 18:16 10.65093 -67.67303 24012 ft 408 kts 248°
2026-04-22 18:17 10.63999 -67.69967 24401 ft 409 kts 248°
2026-04-22 18:17 10.62896 -67.72647 24781 ft 411 kts 248°
2026-04-22 18:17 10.62589 -67.73394 24884 ft 411 kts 248°
2026-04-22 18:17 10.61561 -67.75895 25233 ft 412 kts 248°
2026-04-22 18:18 10.60464 -67.78560 25583 ft 414 kts 248°
2026-04-22 18:18 10.59109 -67.81138 25921 ft 416 kts 235°
2026-04-22 18:18 10.57375 -67.83501 26322 ft 416 kts 234°
2026-04-22 18:18 10.55661 -67.85886 26658 ft 419 kts 234°
2026-04-22 18:19 10.53946 -67.88292 26997 ft 421 kts 235°
2026-04-22 18:19 10.52233 -67.90706 27346 ft 422 kts 235°
2026-04-22 18:19 10.50515 -67.93133 27684 ft 424 kts 235°
2026-04-22 18:19 10.48791 -67.95566 28010 ft 425 kts 235°
2026-04-22 18:20 10.47059 -67.98012 28317 ft 427 kts 235°
2026-04-22 18:20 10.45319 -68.00469 28636 ft 429 kts 235°
2026-04-22 18:20 10.43567 -68.02941 28954 ft 431 kts 235°
2026-04-22 18:20 10.41815 -68.05414 29276 ft 433 kts 235°
2026-04-22 18:21 10.40052 -68.07901 29564 ft 435 kts 235°
2026-04-22 18:21 10.38279 -68.10401 29881 ft 436 kts 235°
2026-04-22 18:21 10.36500 -68.12911 30115 ft 438 kts 235°
2026-04-22 18:21 10.34714 -68.15429 30374 ft 440 kts 235°
2026-04-22 18:22 10.32918 -68.17960 30619 ft 442 kts 235°
2026-04-22 18:22 10.31120 -68.20492 30872 ft 443 kts 234°
2026-04-22 18:22 10.29315 -68.23035 31106 ft 445 kts 234°
2026-04-22 18:22 10.27502 -68.25590 31328 ft 447 kts 234°
2026-04-22 18:23 10.25704 -68.28122 31563 ft 448 kts 234°
2026-04-22 18:23 10.23877 -68.30695 31800 ft 450 kts 234°
2026-04-22 18:23 10.22043 -68.33276 32022 ft 452 kts 234°
2026-04-22 18:24 10.18350 -68.38472 32517 ft 454 kts 234°
2026-04-22 18:24 10.16503 -68.41070 32824 ft 454 kts 234°
2026-04-22 18:24 10.12811 -68.46262 33470 ft 452 kts 233°
2026-04-22 18:25 10.10970 -68.48850 33780 ft 452 kts 233°
2026-04-22 18:25 10.09130 -68.51436 33940 ft 452 kts 233°
2026-04-22 18:25 10.07290 -68.54024 33928 ft 450 kts 233°
2026-04-22 18:26 10.01610 -68.61605 33931 ft 450 kts 227°
2026-04-22 18:26 9.97452 -68.66301 33929 ft 451 kts 228°
2026-04-22 18:27 9.93310 -68.71076 33925 ft 451 kts 228°
2026-04-22 18:27 9.89174 -68.75862 33908 ft 451 kts 228°
2026-04-22 18:28 9.85037 -68.80651 33897 ft 451 kts 228°
2026-04-22 18:28 9.80893 -68.85446 33906 ft 451 kts 228°
2026-04-22 18:29 9.76755 -68.90231 33887 ft 451 kts 228°
2026-04-22 18:29 9.72617 -68.95014 33886 ft 451 kts 228°
2026-04-22 18:30 9.66402 -69.02195 33895 ft 451 kts 228°
2026-04-22 18:31 9.62253 -69.06971 33889 ft 451 kts 228°
2026-04-22 18:31 9.58129 -69.11711 33890 ft 451 kts 227°
2026-04-22 18:32 9.53969 -69.16491 33890 ft 452 kts 227°
2026-04-22 18:32 9.49806 -69.21272 33888 ft 452 kts 227°
2026-04-22 18:33 9.45647 -69.26046 33894 ft 452 kts 227°
2026-04-22 18:33 9.41488 -69.30819 33908 ft 451 kts 227°
2026-04-22 18:34 9.37363 -69.35551 33902 ft 452 kts 227°
2026-04-22 18:34 9.33201 -69.40323 33907 ft 452 kts 227°
2026-04-22 18:35 9.29054 -69.45077 33915 ft 452 kts 227°
2026-04-22 18:35 9.24889 -69.49849 33893 ft 452 kts 227°
2026-04-22 18:36 9.20722 -69.54621 33899 ft 452 kts 227°
2026-04-22 18:36 9.16548 -69.59399 33909 ft 453 kts 227°
2026-04-22 18:37 9.12373 -69.64177 33903 ft 453 kts 227°
2026-04-22 18:37 9.08899 -69.68152 33904 ft 453 kts 227°
2026-04-22 18:38 9.04051 -69.73696 33896 ft 453 kts 227°
2026-04-22 18:38 8.99867 -69.78479 33909 ft 453 kts 227°
2026-04-22 18:39 8.93595 -69.85646 33904 ft 453 kts 227°
2026-04-22 18:39 8.89419 -69.90415 33918 ft 453 kts 227°
2026-04-22 18:40 8.85239 -69.95187 33899 ft 453 kts 227°
2026-04-22 18:40 8.81762 -69.99155 33907 ft 453 kts 227°
2026-04-22 18:41 8.76902 -70.04699 33912 ft 453 kts 227°
2026-04-22 18:41 8.72721 -70.09468 33906 ft 453 kts 227°
2026-04-22 18:42 8.69243 -70.13433 33905 ft 453 kts 227°
2026-04-22 18:42 8.65065 -70.18195 33910 ft 453 kts 227°
2026-04-22 18:43 8.61412 -70.23341 33910 ft 454 kts 247°
2026-04-22 18:43 8.59179 -70.29345 33922 ft 457 kts 248°
2026-04-22 18:44 8.57007 -70.35394 33926 ft 457 kts 249°
2026-04-22 18:44 8.54875 -70.41451 33929 ft 457 kts 249°
2026-04-22 18:45 8.52756 -70.47485 33933 ft 458 kts 249°
2026-04-22 18:45 8.50628 -70.53541 33959 ft 458 kts 249°
2026-04-22 18:46 8.48497 -70.59604 33958 ft 458 kts 249°
2026-04-22 18:46 8.46365 -70.65666 33971 ft 458 kts 249°
2026-04-22 18:47 8.44230 -70.71732 33990 ft 458 kts 250°
2026-04-22 18:47 8.42099 -70.77786 33997 ft 458 kts 250°
2026-04-22 18:48 8.39975 -70.83815 34000 ft 458 kts 250°
2026-04-22 18:48 8.37839 -70.89874 34019 ft 458 kts 250°
2026-04-22 18:49 8.35703 -70.95934 34019 ft 458 kts 249°
2026-04-22 18:49 8.33565 -71.01992 34005 ft 457 kts 249°
2026-04-22 18:50 8.31428 -71.08043 34029 ft 457 kts 249°
2026-04-22 18:50 8.29293 -71.14088 34025 ft 457 kts 249°
2026-04-22 18:51 8.27157 -71.20133 34025 ft 456 kts 249°
2026-04-22 18:51 8.25024 -71.26165 34027 ft 456 kts 249°
2026-04-22 18:52 8.22889 -71.32199 34022 ft 456 kts 249°
2026-04-22 18:52 8.20766 -71.38197 34022 ft 457 kts 249°
2026-04-22 18:53 8.18624 -71.44244 34013 ft 457 kts 249°
2026-04-22 18:53 8.16482 -71.50288 34020 ft 458 kts 249°
2026-04-22 18:54 8.14339 -71.56335 34024 ft 458 kts 249°
2026-04-22 18:54 8.12202 -71.62361 34026 ft 458 kts 249°
2026-04-22 18:55 8.10055 -71.68409 34037 ft 458 kts 249°
2026-04-22 18:55 8.07902 -71.74472 33906 ft 458 kts 249°
2026-04-22 18:56 8.06828 -71.77495 33456 ft 457 kts 249°
2026-04-22 18:56 8.05754 -71.80519 33012 ft 458 kts 249°
2026-04-22 18:56 8.04675 -71.83555 32557 ft 459 kts 249°
2026-04-22 18:56 8.03598 -71.86585 32113 ft 460 kts 249°
2026-04-22 18:57 8.02516 -71.89628 31675 ft 461 kts 249°
2026-04-22 18:57 8.01431 -71.92677 31244 ft 462 kts 249°
2026-04-22 18:57 8.00344 -71.95734 30822 ft 463 kts 250°
2026-04-22 18:57 7.99265 -71.98766 30414 ft 464 kts 250°
2026-04-22 18:58 7.98174 -72.01829 29990 ft 465 kts 250°
2026-04-22 18:58 7.97088 -72.04881 29507 ft 458 kts 250°
2026-04-22 18:58 7.96017 -72.07887 29060 ft 452 kts 250°
2026-04-22 18:58 7.94958 -72.10861 28593 ft 447 kts 250°
2026-04-22 18:59 7.93912 -72.13794 28141 ft 441 kts 250°
2026-04-22 18:59 7.92882 -72.16685 27690 ft 436 kts 250°
2026-04-22 18:59 7.91861 -72.19550 27249 ft 430 kts 250°
2026-04-22 18:59 7.90851 -72.22381 26813 ft 425 kts 250°
2026-04-22 19:00 7.89854 -72.25176 26389 ft 421 kts 250°
2026-04-22 19:00 7.88879 -72.27909 25976 ft 417 kts 250°
2026-04-22 19:00 7.87903 -72.30643 25558 ft 412 kts 250°
2026-04-22 19:00 7.86936 -72.33353 25158 ft 408 kts 250°
2026-04-22 19:01 7.85977 -72.36039 24752 ft 405 kts 250°
2026-04-22 19:01 7.85027 -72.38699 24355 ft 401 kts 250°
2026-04-22 19:01 7.84088 -72.41329 23970 ft 397 kts 250°
2026-04-22 19:01 7.83154 -72.43944 23579 ft 394 kts 251°
2026-04-22 19:02 7.82230 -72.46531 23122 ft 391 kts 251°
2026-04-22 19:02 7.81311 -72.49100 22657 ft 387 kts 251°
2026-04-22 19:02 7.80402 -72.51645 22218 ft 384 kts 251°
2026-04-22 19:02 7.79499 -72.54170 21776 ft 381 kts 251°
2026-04-22 19:03 7.78601 -72.56680 21336 ft 378 kts 251°
2026-04-22 19:03 7.77724 -72.59133 20914 ft 375 kts 251°
2026-04-22 19:03 7.76842 -72.61598 20503 ft 372 kts 251°
2026-04-22 19:03 7.75967 -72.64042 20093 ft 370 kts 251°
2026-04-22 19:04 7.75097 -72.66475 19689 ft 367 kts 251°
2026-04-22 19:04 7.74234 -72.68885 19295 ft 364 kts 251°
2026-04-22 19:04 7.73377 -72.71280 18901 ft 362 kts 251°
2026-04-22 19:04 7.72525 -72.73659 18520 ft 359 kts 251°
2026-04-22 19:05 7.71679 -72.76022 18103 ft 356 kts 251°
2026-04-22 19:05 7.70840 -72.78365 17661 ft 354 kts 251°
2026-04-22 19:05 7.70003 -72.80703 17223 ft 352 kts 251°
2026-04-22 19:05 7.69175 -72.83013 16790 ft 349 kts 251°
2026-04-22 19:06 7.68352 -72.85308 16362 ft 346 kts 251°
2026-04-22 19:06 7.67538 -72.87579 16061 ft 340 kts 251°
2026-04-22 19:06 7.66628 -72.89680 16066 ft 324 kts 238°
2026-04-22 19:07 7.64130 -72.93252 16056 ft 307 kts 236°
2026-04-22 19:07 7.62905 -72.95002 16052 ft 302 kts 236°
2026-04-22 19:07 7.61714 -72.96703 16056 ft 292 kts 236°
2026-04-22 19:07 7.60551 -72.98365 16054 ft 289 kts 236°
2026-04-22 19:08 7.59395 -73.00015 16027 ft 288 kts 236°
2026-04-22 19:08 7.58238 -73.01667 16039 ft 288 kts 236°
2026-04-22 19:08 7.57086 -73.03313 16090 ft 286 kts 236°
2026-04-22 19:08 7.55950 -73.04934 16028 ft 281 kts 236°
2026-04-22 19:09 7.54823 -73.06545 16011 ft 281 kts 236°
2026-04-22 19:09 7.53697 -73.08153 16014 ft 281 kts 236°
2026-04-22 19:09 7.52949 -73.09221 16009 ft 281 kts 236°
2026-04-22 19:09 7.51443 -73.11370 16008 ft 281 kts 236°
2026-04-22 19:10 7.50316 -73.12978 15999 ft 281 kts 236°
2026-04-22 19:10 7.49189 -73.14587 15997 ft 281 kts 236°
2026-04-22 19:10 7.48059 -73.16196 15983 ft 281 kts 235°
2026-04-22 19:10 7.46695 -73.17595 15965 ft 282 kts 214°
2026-04-22 19:11 7.44911 -73.18415 15998 ft 284 kts 198°
2026-04-22 19:11 7.43031 -73.18957 15984 ft 284 kts 196°
2026-04-22 19:11 7.41112 -73.19448 15985 ft 285 kts 195°
2026-04-22 19:11 7.39183 -73.19904 15991 ft 285 kts 194°
2026-04-22 19:12 7.37244 -73.20341 15992 ft 285 kts 194°
2026-04-22 19:12 7.35299 -73.20768 15997 ft 285 kts 193°
2026-04-22 19:12 7.33359 -73.21186 15885 ft 286 kts 193°
2026-04-22 19:12 7.31387 -73.21607 15341 ft 288 kts 193°
2026-04-22 19:13 7.29442 -73.22018 14883 ft 284 kts 193°
2026-04-22 19:13 7.27517 -73.22425 14426 ft 281 kts 193°
2026-04-22 19:13 7.25613 -73.22827 13986 ft 277 kts 193°
2026-04-22 19:13 7.23735 -73.23222 13509 ft 274 kts 193°
2026-04-22 19:14 7.21884 -73.23613 13077 ft 267 kts 193°
2026-04-22 19:14 7.20142 -73.23981 13057 ft 244 kts 193°
2026-04-22 19:14 7.18487 -73.24330 13038 ft 242 kts 193°
2026-04-22 19:14 7.16838 -73.24678 13010 ft 242 kts 193°
2026-04-22 19:15 7.15747 -73.24908 12961 ft 242 kts 193°
2026-04-22 19:15 7.13565 -73.25368 12645 ft 241 kts 193°
2026-04-22 19:15 7.11922 -73.25714 12396 ft 240 kts 193°
2026-04-22 19:15 7.10289 -73.26058 12149 ft 239 kts 193°
2026-04-22 19:16 7.08659 -73.26402 11901 ft 239 kts 193°
2026-04-22 19:16 7.07031 -73.26700 11651 ft 238 kts 184°
2026-04-22 19:16 7.05412 -73.26414 11389 ft 237 kts 161°
2026-04-22 19:16 7.03851 -73.25859 11183 ft 238 kts 161°
2026-04-22 19:17 7.02295 -73.25293 10997 ft 237 kts 161°
2026-04-22 19:17 7.00744 -73.24722 10967 ft 237 kts 161°
2026-04-22 19:17 6.99195 -73.24145 10981 ft 238 kts 160°
2026-04-22 19:17 6.97642 -73.23563 10982 ft 238 kts 160°
2026-04-22 19:18 6.96091 -73.22979 10987 ft 238 kts 160°
2026-04-22 19:18 6.94562 -73.22402 10984 ft 238 kts 160°
2026-04-22 19:18 6.93104 -73.21628 10933 ft 237 kts 137°
2026-04-22 19:18 6.92210 -73.20250 10967 ft 237 kts 111°
2026-04-22 19:19 6.91643 -73.18681 11010 ft 239 kts 110°
2026-04-22 19:19 6.91087 -73.17101 11002 ft 239 kts 109°
2026-04-22 19:19 6.90541 -73.15526 10991 ft 239 kts 109°
2026-04-22 19:19 6.89998 -73.13945 10976 ft 239 kts 109°
2026-04-22 19:20 6.89462 -73.12367 10988 ft 239 kts 109°
2026-04-22 19:20 6.88925 -73.10784 10981 ft 239 kts 109°
2026-04-22 19:20 6.88388 -73.09201 10983 ft 239 kts 110°
2026-04-22 19:20 6.87524 -73.07804 10948 ft 236 kts 140°
2026-04-22 19:21 6.86075 -73.07086 10965 ft 235 kts 172°
2026-04-22 19:21 6.84469 -73.07229 10961 ft 234 kts 202°
2026-04-22 19:21 6.83164 -73.08147 10811 ft 226 kts 233°
2026-04-22 19:21 6.82546 -73.09520 10569 ft 216 kts 264°
2026-04-22 19:22 6.82718 -73.10979 10328 ft 211 kts 290°
2026-04-22 19:22 6.83219 -73.12375 10121 ft 212 kts 291°
2026-04-22 19:22 6.83730 -73.13766 9903 ft 212 kts 291°
2026-04-22 19:22 6.84246 -73.15152 9661 ft 211 kts 291°
2026-04-22 19:23 6.84763 -73.16530 9414 ft 210 kts 291°
2026-04-22 19:23 6.85520 -73.17760 9120 ft 207 kts 319°
2026-04-22 19:23 6.86785 -73.18407 8866 ft 205 kts 349°
2026-04-22 19:23 6.88177 -73.18318 8633 ft 206 kts 19°
2026-04-22 19:24 6.89360 -73.17552 8384 ft 202 kts 47°
2026-04-22 19:24 6.90024 -73.16339 8121 ft 197 kts 75°
2026-04-22 19:24 6.90074 -73.15005 7934 ft 188 kts 102°
2026-04-22 19:24 6.89729 -73.13723 7988 ft 193 kts 105°
2026-04-22 19:25 6.89349 -73.12417 8050 ft 196 kts 106°
2026-04-22 19:25 6.88948 -73.11106 8007 ft 196 kts 107°
2026-04-22 19:25 6.88534 -73.09799 7985 ft 196 kts 107°
2026-04-22 19:25 6.88224 -73.08472 7934 ft 194 kts 90°
2026-04-22 19:26 6.88514 -73.07177 7801 ft 190 kts 59°
2026-04-22 19:26 6.89379 -73.06213 7619 ft 187 kts 29°
2026-04-22 19:26 6.90590 -73.05796 7447 ft 184 kts
2026-04-22 19:26 6.91840 -73.05991 7299 ft 183 kts 337°
2026-04-22 19:27 6.92564 -73.06417 7204 ft 183 kts 320°
2026-04-22 19:27 6.93357 -73.07407 7100 ft 182 kts 300°
2026-04-22 19:27 6.93946 -73.08542 7123 ft 184 kts 298°
2026-04-22 19:27 6.94505 -73.09702 7037 ft 183 kts 296°
2026-04-22 19:28 6.95246 -73.11225 6789 ft 182 kts 306°
2026-04-22 19:28 6.96133 -73.12116 6590 ft 181 kts 328°
2026-04-22 19:28 6.96880 -73.12523 6459 ft 180 kts 336°
2026-04-22 19:28 6.98037 -73.12992 6239 ft 179 kts 339°
2026-04-22 19:29 6.99204 -73.13432 6019 ft 179 kts 340°
2026-04-22 19:29 7.00368 -73.13865 5778 ft 176 kts 339°
2026-04-22 19:29 7.01490 -73.14284 5567 ft 169 kts 339°
2026-04-22 19:29 7.02581 -73.14693 5489 ft 167 kts 339°
2026-04-22 19:30 7.03301 -73.14962 5475 ft 167 kts 339°
2026-04-22 19:30 7.04751 -73.15508 5256 ft 163 kts 339°
2026-04-22 19:30 7.05790 -73.15901 5074 ft 157 kts 340°
2026-04-22 19:30 7.06787 -73.16275 4899 ft 149 kts 339°
2026-04-22 19:31 7.07728 -73.16630 4712 ft 143 kts 339°
2026-04-22 19:31 7.08652 -73.16978 4536 ft 148 kts 339°
2026-04-22 19:31 7.09737 -73.17386 4559 ft 167 kts 339°
2026-04-22 19:31 7.10784 -73.17769 4270 ft 157 kts 339°
2026-04-22 19:32 7.11785 -73.18148 3935 ft 148 kts 341°
2026-04-22 19:32 7.12656 -73.18471 3889 ft 115 kts 339°
2026-04-22 19:32 7.13007 -73.18603 3898 ft 33 kts 338°
2026-04-22 19:32 7.13174 -73.18658 3905 ft 16 kts
2026-04-22 19:33 7.13192 -73.18600 3901 ft 10 kts 127°
2026-04-22 19:33 7.13187 -73.18594 3902 ft 0 kts 131°
2026-04-22 19:33 7.13186 -73.18593 3902 ft 1 kts 131°
2026-04-22 19:34 7.13172 -73.18576 3902 ft 5 kts 131°
2026-04-22 19:34 7.13133 -73.18548 3899 ft 9 kts 154°
2026-04-22 19:34 7.13067 -73.18520 3898 ft 12 kts 158°
2026-04-22 19:34 7.12980 -73.18485 3898 ft 15 kts 159°
2026-04-22 19:35 7.12884 -73.18427 3892 ft 18 kts 140°
2026-04-22 19:35 7.12787 -73.18344 3892 ft 18 kts 139°
2026-04-22 19:35 7.12730 -73.18289 3890 ft 11 kts 120°
2026-04-22 19:35 7.12691 -73.18211 3889 ft 13 kts 111°
2026-04-22 19:36 7.12674 -73.18145 3888 ft 7 kts 102°
2026-04-22 19:36 7.12678 -73.18106 3888 ft 3 kts 49°
2026-04-22 19:36 7.12693 -73.18100 3887 ft 2 kts
2026-04-22 19:36 7.12713 -73.18098 3888 ft 3 kts
2026-04-22 19:37 7.12719 -73.18097 3888 ft 0 kts